Погода в Сосновке

Россия / Курская область     51°26′35″N   38°10′29″E
темп.,
°C
ветер,
м/с
пор.,
м/с
влажн.,
%
обл.,
%
осадки,
мм/ч
давл.,
гПа
погр.,
м
3 марта, ср
ср300:000ссз5997100 0.5 1012605
03:00−1ссз6139584 0.8 1014574
06:00−1ссз71287100 0.0 1015817
09:00−3ссз8128795 0.1 1018896
12:00−2ссз7107883 0.0 1019944
15:00−1сз697554 0.0 1020854
18:00−2з410872 0.0 1020404
21:00−2з613924 0.0 1020456
4 марта, чт
чт400:00−2з6129287 0.0 1018466
03:00−2з6139380 0.0 1017382
06:00−2зюз613917 0.0 1015366
09:00−1зюз714838 0.0 1014526
12:00+2зюз814700 0.0 1011762
15:00+4юз815660 0.0 1008859
18:00+3юз7168028 0.0 1006670
21:00+3зюз7168761 0.0 1005677
5 марта, пт
пт500:00+2зюз61396100 0.3 1004555
03:00+2зюз61196100 0.5 1004531
06:00+1з71397100 0.3 1004613
09:00+1з7108896 0.3 1006678
12:00+2з5884100 0.1 1008718
15:00−1с4689100 0.4 1009431
18:00−2ссв4688100 0.5 1010522
21:00−2ссв4681100 0.6 1012606
6 марта, сб
сб600:00−3с4680100 0.0 1013560
03:00−4с477470 0.0 1015449
06:00−4ссз358164 0.0 1016304
09:00−4ссз348159 0.0 1017360
12:00−2сз34630 0.0 1017809
15:00−1сз355830 0.0 10171092
18:00−3сз575692 0.4 10171228
21:00−4зсз356988 0.5 1018742
7 марта, вс
вс700:00−5сз588055 0.1 1019608
03:00−6зсз477652 0.1 1019637
06:00−6зюз510680 0.0 1018637
09:00−4зюз9145633 0.0 1016941
12:00−2юз101649100 0.0 10131165
15:000зюз11184995 0.0 10101351
18:000зюз101862100 0.0 10071397
21:00−1зюз91675100 0.0 10061122